Weather History for Lawton, OK

Change the Weather History Date:

Thursday, September 5, 2013

  Actual Average Record
Temperature  
Mean Temperature 86 °F -  
Max Temperature 99 °F 90 °F 109 °F (1998)
Min Temperature 73 °F 66 °F 49 °F (1974)
Cooling Degree Days 21    
Growing Degree Days 36 (Base 50)    
Moisture  
Dew Point 60 °F    
Average Humidity 45    
Maximum Humidity 68    
Minimum Humidity 22    
Precipitation  
Precipitation 0.00 in - - ()
Sea Level Pressure  
Sea Level Pressure 30.04 in    
Wind  
Wind Speed 7 mph (ESE)    
Max Wind Speed 12 mph    
Max Gust Speed 16 mph    
Visibility 10 miles    
Events      
Averages and records for this station are not official NWS values.
T = Trace of Precipitation, MM = Missing Value Source: NWS Daily Summary

Daily Weather History Graph

Daily Weather History Graph

Search for Another Location

Airport:

Trip Planner

Search our weather history database for the weather conditions in past years. The results will help you decide how hot, cold, wet, or windy it might be!

Date:

Astronomy

Sep. 05, 2013 Rise Set
Actual Time 7:09 AM CDT 7:54 PM CDT
Civil Twilight 6:44 AM CDT 8:19 PM CDT
Nautical Twilight 6:14 AM CDT 8:49 PM CDT
Astronomical Twilight 5:43 AM CDT 9:20 PM CDT
Moon 7:20 AM CDT (9/5) 7:50 PM CDT (9/5)
Length of Visible Light 13h 35m
Length of Day
12h 44m
New Moon, 0% of the Moon is Illuminated
Sep 5
New Moon
Sep 12
First Quarter
Sep 19
Full
Sep 26
Last Quarter
Oct 4
New

Hourly Weather History & Observations

Time (CDT) Temp. Heat Index Dew Point Humidity Pressure Visibility Wind Dir Wind Speed Gust Speed Precip Events Conditions
12:53 AM 81.0 °F 82.5 °F 64.0 °F 56% 30.04 in 10.0 mi ESE 9.2 mph - N/A   Mostly Cloudy
1:53 AM 78.1 °F - 63.0 °F 60% 30.04 in 10.0 mi ESE 5.8 mph - N/A   Clear
2:53 AM 77.0 °F - 63.0 °F 62% 30.04 in 10.0 mi ESE 3.5 mph - N/A   Clear
3:53 AM 75.9 °F - 62.1 °F 62% 30.04 in 10.0 mi East 4.6 mph - N/A   Clear
4:53 AM 75.9 °F - 62.1 °F 62% 30.04 in 10.0 mi East 5.8 mph - N/A   Clear
5:53 AM 75.0 °F - 62.1 °F 64% 30.05 in 10.0 mi East 4.6 mph - N/A   Clear
6:53 AM 73.0 °F - 62.1 °F 68% 30.05 in 10.0 mi ENE 3.5 mph - N/A   Clear
7:53 AM 73.9 °F - 62.1 °F 66% 30.08 in 10.0 mi ENE 3.5 mph - N/A   Clear
8:53 AM 79.0 °F - 62.1 °F 56% 30.09 in 10.0 mi SE 6.9 mph - N/A   Clear
9:53 AM 84.0 °F 85.4 °F 64.0 °F 51% 30.09 in 10.0 mi SE 9.2 mph - N/A   Clear
10:53 AM 88.0 °F 90.3 °F 66.0 °F 48% 30.10 in 10.0 mi SE 5.8 mph - N/A   Clear
11:53 AM 91.9 °F 94.5 °F 66.0 °F 42% 30.09 in 10.0 mi SSE 5.8 mph - N/A   Clear
12:53 PM 95.0 °F 97.0 °F 64.0 °F 36% 30.07 in 10.0 mi SSE 5.8 mph - N/A   Clear
1:53 PM 97.0 °F 96.5 °F 59.0 °F 28% 30.06 in 10.0 mi ESE 9.2 mph - N/A   Clear
2:53 PM 98.1 °F 96.4 °F 55.9 °F 24% 30.04 in 10.0 mi SSE 6.9 mph - N/A   Clear
3:53 PM 98.1 °F 96.1 °F 54.0 °F 23% 30.02 in 10.0 mi SSE 11.5 mph 16.1 mph N/A   Clear
4:53 PM 99.0 °F 96.9 °F 54.0 °F 22% 30.00 in 10.0 mi East 10.4 mph - N/A   Clear
5:53 PM 98.1 °F 96.4 °F 55.0 °F 24% 29.99 in 10.0 mi SE 5.8 mph - N/A   Clear
6:53 PM 96.1 °F 93.8 °F 54.0 °F 24% 29.99 in 10.0 mi SSE 5.8 mph - N/A   Clear
7:53 PM 91.9 °F 90.3 °F 55.9 °F 30% 29.99 in 10.0 mi East 5.8 mph - N/A   Clear
8:53 PM 88.0 °F 86.9 °F 57.9 °F 36% 30.01 in 10.0 mi East 6.9 mph - N/A   Clear
9:53 PM 86.0 °F 84.9 °F 57.0 °F 37% 30.03 in 10.0 mi East 9.2 mph - N/A   Clear
10:53 PM 82.0 °F 82.0 °F 57.9 °F 44% 30.05 in 10.0 mi East 4.6 mph - N/A   Clear
11:53 PM 80.1 °F 80.7 °F 59.0 °F 48% 30.06 in 10.0 mi East 4.6 mph - N/A   Clear